Regional Weather Roundup
Issued by NWS

Home | Current Version | Previous Version | Graphics & Text | Print | Product List | Glossary On
Versions: 1 2 3 4 5 6 7 8 9 10 11 12 13 14 15 16 17 18 19 20 21 22 23 24 25 26 27 28 29 30 31 32 33 34 35 36 37 38 39 40 41 42 43 44 45 46 47 48 49
000
ASUS45 KBOI 040710
RWRID

IDAHO REGIONAL WEATHER ROUNDUP
NATIONAL WEATHER SERVICE BOISE ID
100 AM MDT TUE AUG 04 2015

NOTE: "FAIR" INDICATES FEW OR NO CLOUDS BELOW 12000 FEET
WITH NO SIGNIFICANT WEATHER AND/OR OBSTRUCTIONS TO VISIBILITY

IDZ012-014-040800-
SOUTHWEST IDAHO


CITY           SKY/WX    TMP DP  RH WIND       PRES   REMARKS
BOISE          CLEAR     74  50  42 SW5       29.91R
CALDWELL       PTCLDY    73  43  33 W21G26    29.96R
MOUNTAIN HOME  CLEAR     71  47  42 S6        29.90R
$$

IDZ016-017-040800-
SOUTHCENTRAL IDAHO


CITY           SKY/WX    TMP DP  RH WIND       PRES   REMARKS
BURLEY         MOCLDY    68  51  54 SE7       29.99R
JEROME         PTCLDY    66  50  56 E7        29.98S
TWIN FALLS     CLEAR     75  47  36 S15       29.95S
$$

IDZ019>023-040800-
SOUTHEAST IDAHO


CITY           SKY/WX    TMP DP  RH WIND       PRES   REMARKS
IDAHO FALLS    CLOUDY    60  55  83 W5        30.09R
POCATELLO      MOCLDY    63  59  87 E7        30.05R
REXBURG        LGT RAIN  61  54  77 SE5       30.10R
$$

IDZ006-010-011-018-031-032-040800-
CENTRAL IDAHO MOUNTAINS


CITY           SKY/WX    TMP DP  RH WIND       PRES   REMARKS
MCCALL         CLEAR     56  48  74 CALM      30.04R
HAILEY         MOCLDY    61  46  59 NW3       30.10R
STANLEY          N/A     50  40  68 SE3       30.16R
SALMON         CLOUDY    72  45  37 CALM      29.94R
CHALLIS        CLOUDY    65  45  48 W3        30.03S
$$

IDZ002-004-006-007-026-040800-
NORTHERN IDAHO


CITY           SKY/WX    TMP DP  RH WIND       PRES   REMARKS
LEWISTON       CLOUDY    78  47  33 CALM      29.84S
LOWELL           N/A     67  52  58 CALM      29.88R
COEUR D`ALENE  CLOUDY    73  46  38 CALM      29.86S
MULLAN PASS    CLOUDY    61  40  45 NW8       30.07R
$$



USA.gov is the U.S. government's official web portal to all federal, state and local government web resources and services.